Regional Weather Roundup
Issued by NWS Raleigh/Durham, NC

Home | Current Version | Previous Version | Text Only | Print | Product List | Glossary On
Versions: 1 2 3 4 5 6 7 8 9 10 11 12 13 14 15 16 17 18 19 20 21 22 23 24 25 26 27 28 29 30 31 32 33 34 35 36 37 38 39 40 41 42 43 44 45 46 47 48 49
000
ASUS42 KRAH 230110
RWRRAH
NORTH CAROLINA WEATHER ROUNDUP
NATIONAL WEATHER SERVICE RALEIGH NC
800 PM EST MON DEC 22 2014

NOTE: "FAIR" INDICATES FEW OR NO CLOUDS BELOW 12,000 FEET WITH NO
SIGNIFICANT WEATHER AND/OR OBSTRUCTIONS TO VISIBILITY.

NCZ001-053-055-056-065-067-230200-
WESTERN NORTH CAROLINA

CITY           SKY/WX    TMP DP  RH WIND       PRES   REMARKS
ASHEVILLE      LGT RAIN  40  38  93 S6        29.98S FOG
JEFFERSON      FOG       34  34 100 CALM      29.99R VSB 1/4
MORGANTON      CLOUDY    39  37  92 N5        30.09R
HICKORY        CLOUDY    37  35  92 NE8       30.03F WCI  31
RUTHERFORDTON  CLOUDY    40  40  99 CALM      30.03S FOG
MOUNT AIRY     DRIZZLE   38  36  92 NE7       30.06F WCI  32
BOONE          FOG       34  34 100 CALM      30.00S VSB 1/2
$$

NCZ021-022-025-041-071-084-088-230200-
CENTRAL NORTH CAROLINA

CITY           SKY/WX    TMP DP  RH WIND       PRES   REMARKS
CHARLOTTE      LGT RAIN  38  35  89 NE8       30.04F FOG     WCI  32
GREENSBORO     DRIZZLE   35  34  96 NE12      30.05F FOG     WCI  27
WINSTON-SALEM  CLOUDY    35  33  92 NE8       30.06F FOG     WCI  29
RALEIGH-DURHAM DRIZZLE   37  35  92 N6        30.09R FOG     WCI  32
FORT BRAGG     CLOUDY    40  39  97 N5        30.06S FOG
FAYETTEVILLE   CLOUDY    41  40  96 N9        30.06R FOG
BURLINGTON     CLOUDY    36  34  92 N7        30.08S FOG     WCI  30
LAURINBURG     CLOUDY    40  39  97 N7        30.07R FOG
$$

NCZ011-015-027-028-043-044-047-080-103-230200-
NORTHEASTERN NORTH CAROLINA

CITY           SKY/WX    TMP DP  RH WIND       PRES   REMARKS
ROCKY MT-WILSO CLOUDY    41  39  93 N12       30.05F FOG
GREENVILLE     CLOUDY    43  43 100 N9        30.05F FOG
WASHINGTON     CLOUDY    44  43  97 NW7       30.04S FOG
ELIZABETH CITY CLOUDY    56  51  84 NW9       30.01R HAZE
MANTEO         FOG       51  51 100 NW6       29.98R VSB 1
CAPE HATTERAS  FOG       51  51 100 W5        29.97S VSB 1/2
$$

NCZ078-087-090-091-093-098-101-230200-
SOUTHEASTERN NORTH CAROLINA

CITY           SKY/WX    TMP DP  RH WIND       PRES   REMARKS
LUMBERTON      CLOUDY    42  41  96 NE7       30.04F FOG
GOLDSBORO      CLOUDY    42  41  99 VRB5      30.04R FOG
KINSTON        FOG       43  43 100 NW7       30.06S VSB 1
KENANSVILLE    CLOUDY    42  41  99 NW8       30.06R FOG
NEW BERN       CLOUDY    47  44  90 N7        30.04S FOG
CHERRY POINT   FOG       47  46  97 N7        30.02F VSB 1/2
BEAUFORT       CLOUDY    49  48  97 N7        30.00F
JACKSONVILLE   CLOUDY    45  44  97 N10       30.02F FOG
WILMINGTON     CLOUDY    45  44  97 N7        30.04R
$$




USA.gov is the U.S. government's official web portal to all federal, state and local government web resources and services.